RH
44 42 42 40 42 30 48 61 44 41 39 35 32 30 29 23 16 16 15 16 16 16 17 17 17 17 19 23 32 44 47 39 32 27 18 14 12 10 10 10 9 9 8 8 6 5 6 7 8
39 37 35 40 38 48 39 35 38 40 44 40 37 36 33 31 26 18 17 16 16 16 16 15 15 15 19 22 29 39 50 44 36 29 22 17 16 13 12 12 12 10 11 10 8 7 7 9 10
50 36 32 34 35 39 35 35 38 40 40 39 37 37 36 34 32 27 19 19 21 20 19 16 15 15 17 23 24 36 52 46 40 33 25 20 18 16 13 13 14 13 12 13 11 9 12 14 14
83 44 36 36 38 32 32 33 34 36 38 37 35 36 35 34 36 31 29 16 18 24 23 20 16 15 16 23 23 34 50 48 43 36 28 22 19 17 16 14 15 15 15 15 15 12 14 19 19
64 78 46 38 34 35 31 30 32 32 34 35 34 31 32 29 32 32 32 31 16 16 22 22 18 15 15 23 22 31 60 50 45 35 28 24 23 21 19 17 17 17 15 19 18 17 13 16 20
59 70 74 66 42 42 40 34 30 31 33 34 32 31 34 28 33 32 29 32 30 21 21 28 22 15 20 24 20 38 70 50 50 36 29 24 25 24 24 21 19 18 18 18 20 18 16 14 15
53 64 64 63 60 58 46 38 36 33 30 28 25 25 30 39 35 33 31 36 38 22 21 22 20 23 25 25 27 46 80 53 50 42 33 25 24 26 23 23 20 20 23 22 21 23 20 16 14
61 56 61 59 50 46 46 44 45 45 39 29 25 23 29 53 48 39 46 51 54 46 28 29 25 24 28 32 34 58 71 54 52 43 37 27 25 25 24 21 22 23 25 31 28 24 27 20 17
59 58 57 49 47 40 37 39 37 38 37 29 27 24 37 65 52 58 64 60 59 56 67 59 53 46 46 47 57 72 60 57 54 44 39 29 27 27 25 22 21 23 29 36 38 31 31 29 22
60 55 50 38 35 37 31 25 23 24 24 24 20 20 31 42 63 40 52 61 51 56 68 58 63 53 70 91 89 73 59 65 56 45 42 33 28 27 26 24 22 24 31 40 43 40 38 32 29
52 48 43 40 31 22 17 18 18 18 18 18 18 18 20 23 41 56 55 50 50 52 53 45 42 46 57 75 82 63 54 70 58 45 39 34 29 27 26 26 25 26 36 44 46 47 43 36 34
39 35 30 24 20 19 19 18 18 20 17 16 17 16 17 25 19 37 41 49 49 41 32 23 44 38 46 76 59 45 79 65 54 44 37 36 32 27 27 27 26 26 38 46 48 49 49 44 39
28 23 24 23 22 22 22 22 22 22 22 20 19 17 16 18 25 20 26 24 23 30 45 99 97 91 94 95 89 86 68 54 47 39 36 34 31 28 27 28 27 27 39 47 49 50 49 49 38
27 25 24 24 22 22 22 23 24 23 24 23 20 18 17 15 16 22 20 24 21 21 35 68 94 93 89 82 74 65 56 50 43 36 32 32 30 28 27 28 27 30 41 46 50 50 54 46 44
26 25 23 24 23 23 21 28 24 26 29 25 25 22 20 17 16 16 16 16 16 15 20 42 64 66 69 70 63 53 45 40 37 33 30 30 28 27 29 29 28 32 41 47 51 58 57 49 46
24 24 26 26 24 23 23 35 27 27 30 30 28 27 25 22 21 20 19 18 20 24 25 27 32 41 44 38 38 40 36 34 34 32 29 27 26 27 30 28 29 35 42 47 53 63 62 52 48
24 25 24 28 24 23 25 38 39 36 36 36 34 30 27 24 22 21 20 20 25 26 23 23 20 24 33 29 23 26 29 30 30 28 26 27 28 28 28 28 30 36 43 47 52 60 63 54 45
24 24 25 25 23 23 28 37 49 42 41 44 40 35 32 30 27 26 24 24 23 22 23 22 21 20 20 22 21 21 23 26 25 24 26 27 28 27 26 28 32 37 42 46 49 56 66 49 47
27 27 30 31 30 26 33 47 62 61 47 42 43 47 46 40 35 32 30 30 30 31 33 34 32 31 28 29 32 30 29 27 26 25 27 29 29 28 30 33 36 38 43 46 52 66 67 40 44
36 38 43 48 44 44 45 55 58 96 51 52 49 54 58 51 47 46 47 45 42 40 39 43 46 45 44 37 37 40 39 39 35 33 32 32 32 32 34 36 39 41 45 49 58 76 65 44 35
51 50 56 52 52 51 47 58 71 59 53 47 50 58 53 50 51 56 59 59 65 67 68 65 61 59 54 53 48 49 49 44 43 43 41 39 38 38 40 42 43 44 46 52 72 71 62 40 34
47 42 43 44 40 41 46 38 71 46 40 40 47 51 60 63 66 68 68 66 67 66 68 80 92 89 82 76 69 63 66 64 57 54 52 48 48 47 46 46 46 47 51 60 78 71 55 38 33
27 26 25 25 25 23 33 24 33 34 27 23 27 27 29 28 31 35 46 58 65 62 60 58 59 61 68 81 86 76 77 76 70 67 64 56 55 54 52 52 52 56 64 75 78 72 55 37 30
25 24 24 24 23 24 24 24 30 28 24 21 21 22 25 27 27 26 34 46 54 61 61 65 66 68 57 54 55 57 58 61 83 78 74 79 76 71 70 68 65 68 78 84 80 75 50 34 28
23 24 23 24 22 22 22 24 32 28 23 22 24 25 26 26 24 28 35 34 37 38 34 34 36 47 65 77 75 67 62 50 37 47 64 80 81 75 77 82 64 70 86 85 77 63 42 34 33
22 21 24 22 24 23 27 29 34 28 24 22 22 22 22 21 20 19 25 31 28 29 25 25 27 27 25 30 40 48 51 51 44 52 41 30 56 97 88 81 74 74 73 73 54 43 40 36 34
22 22 24 27 30 33 33 35 46 42 33 30 28 26 23 21 19 19 24 22 22 21 25 20 19 18 20 21 18 23 24 23 27 28 38 33 28 36 58 83 81 76 62 48 42 41 38 38 35
36 29 29 34 34 32 32 34 45 48 26 26 23 23 22 18 16 14 16 15 15 15 16 17 17 18 17 16 16 18 20 21 24 25 27 34 35 37 41 37 37 48 48 40 39 37 35 37 35
40 38 38 40 40 36 34 37 57 31 27 26 24 20 17 16 16 16 17 17 16 14 12 10 8 9 13 17 17 15 18 18 19 24 27 33 33 33 45 44 34 33 47 44 40 41 37 36 35
40 46 46 48 46 47 40 31 54 33 27 23 20 16 14 13 12 11 9 9 8 8 8 7 7 5 5 6 6 12 14 15 16 16 22 26 28 31 40 46 40 37 38 40 41 41 35 37 35
Wind_Speed
27 26 24 21 20 21 21 18 18 18 18 19 16 17 18 18 19 20 21 23 25 27 28 30 31 32 33 35 36 39 40 43 47 52 53 49 45 43 43 44 42 38 31 26 25 20 19 19 20
27 26 27 24 24 23 27 25 23 23 22 23 21 20 21 21 22 24 25 25 27 29 31 33 33 33 34 36 39 39 40 42 46 50 53 49 47 46 44 46 47 44 38 29 25 24 22 20 18
28 26 26 25 25 27 27 28 28 27 28 28 28 27 27 28 27 26 27 30 29 31 33 35 36 36 35 38 40 39 41 42 45 48 52 50 49 48 46 45 48 50 43 36 28 24 21 21 21
29 30 27 28 26 27 30 31 30 32 32 32 33 32 32 32 33 32 32 30 31 32 33 34 36 36 37 40 41 40 42 42 45 47 51 49 49 49 48 47 48 49 47 41 33 27 21 18 19
36 31 32 30 29 29 30 32 32 34 34 36 36 36 36 35 36 36 35 34 34 35 33 35 37 38 39 42 42 41 41 42 46 48 50 47 47 49 49 49 49 50 49 43 37 30 27 20 18
42 39 36 31 32 33 34 34 34 36 37 38 39 40 39 39 39 39 39 38 39 37 36 36 37 38 41 43 42 40 40 43 44 48 48 46 46 48 49 50 49 50 50 46 43 35 30 27 21
47 42 40 40 37 37 38 39 38 39 41 42 43 42 41 42 42 42 42 40 39 38 37 37 38 39 43 44 44 41 39 43 47 45 46 46 46 46 48 48 50 50 51 49 46 44 37 34 25
50 50 46 45 43 41 43 44 46 46 46 47 46 44 43 47 44 44 43 42 42 40 39 41 43 43 46 47 44 42 40 41 46 47 43 45 46 47 47 48 48 49 51 50 48 45 43 41 34
55 54 51 47 49 46 47 50 50 50 49 48 46 44 45 45 47 47 46 45 46 46 46 44 48 47 51 51 48 41 40 44 43 45 45 44 46 46 47 48 48 48 49 48 50 49 45 42 40
56 57 55 50 47 50 50 52 52 49 48 48 47 46 47 47 50 50 51 50 49 50 50 50 48 52 52 49 43 40 42 45 45 45 44 47 46 46 47 48 48 47 48 46 47 49 48 44 42
56 56 55 54 51 49 51 52 54 53 51 49 49 48 48 53 53 52 53 54 53 51 53 53 52 52 53 51 46 43 45 46 47 47 46 47 46 46 47 48 49 46 46 47 46 48 48 45 41
55 55 56 54 50 50 51 54 54 55 56 52 50 51 52 55 55 57 56 57 57 58 56 54 54 55 56 53 50 46 49 48 49 49 49 49 48 47 48 49 50 46 45 46 47 48 47 45 42
58 57 55 55 56 55 55 57 58 60 57 56 55 53 53 56 61 58 60 61 61 60 56 58 54 52 52 49 51 51 51 53 52 53 51 50 50 48 47 48 51 46 44 45 48 48 47 45 42
60 61 61 60 59 59 59 61 60 63 62 61 59 58 57 57 59 62 63 62 62 62 59 60 60 59 59 57 56 57 54 57 55 55 53 52 52 50 49 48 50 46 43 45 50 48 47 47 46
60 61 62 64 64 62 62 63 65 65 64 66 64 63 62 63 63 64 67 66 63 63 65 64 66 68 64 62 60 59 58 58 58 56 56 54 53 51 50 48 50 48 44 45 50 49 47 48 48
61 62 64 65 65 63 62 61 69 67 65 66 68 64 65 65 65 66 68 66 67 66 66 65 65 69 73 67 65 61 63 59 60 58 59 57 54 53 52 50 50 49 47 46 52 50 49 49 50
61 62 63 66 65 63 62 61 66 68 66 66 66 68 66 67 69 69 69 67 67 69 70 70 68 66 71 72 66 64 66 65 64 61 60 59 58 56 53 52 50 50 49 50 53 52 51 50 51
60 60 64 66 67 63 64 62 65 70 68 68 70 71 72 73 71 68 70 72 73 72 74 74 74 71 69 75 73 68 67 70 68 64 62 63 63 63 57 54 52 53 53 53 54 54 53 53 51
56 58 59 63 64 62 63 60 65 69 72 72 72 73 76 78 79 78 79 81 82 80 79 82 83 82 78 75 79 77 71 71 70 68 66 67 68 66 60 56 56 57 57 56 56 53 53 53 50
53 55 56 58 61 61 62 62 66 69 71 74 75 77 80 81 83 83 85 88 89 90 89 89 91 90 90 86 83 87 82 77 76 74 72 73 72 70 64 60 59 59 59 58 56 54 54 54 47
51 51 55 56 60 64 63 67 72 72 71 73 77 81 84 85 86 86 87 89 90 92 93 94 96 97 96 96 91 87 92 86 80 79 80 78 73 71 68 64 62 62 61 61 60 55 56 53 47
49 51 54 58 59 61 71 68 77 77 76 75 79 82 86 88 90 92 93 95 97 98 99 98 98 99 101 101 100 95 91 93 88 85 84 81 78 76 74 71 67 64 63 64 62 58 58 52 45
48 50 52 56 58 59 68 68 76 75 73 74 78 80 82 85 89 91 95 97 102 103 103 105 105 106 106 106 106 103 96 94 96 91 89 87 85 82 78 75 71 68 68 68 63 60 60 50 44
51 53 55 57 58 60 65 66 75 79 77 77 80 85 87 89 91 95 99 103 105 108 109 110 111 110 110 109 110 109 106 101 98 99 93 91 89 87 82 80 77 72 68 67 63 63 59 50 44
49 53 57 62 64 67 71 75 80 81 83 83 83 85 87 92 95 96 99 106 109 112 114 116 118 118 119 118 117 115 112 108 101 101 99 94 92 90 85 83 80 74 69 69 66 64 56 50 48
52 54 59 61 65 67 70 73 86 84 88 91 95 98 101 104 105 104 105 108 112 117 120 125 126 126 127 127 126 125 122 118 113 109 105 94 91 91 90 85 81 76 75 72 65 60 54 52 50
59 63 65 62 64 66 69 77 85 84 89 93 98 105 110 114 117 116 118 121 122 124 126 129 133 132 133 135 133 131 130 127 124 117 113 108 98 88 88 88 82 76 75 69 63 57 54 54 53
71 76 73 73 76 79 75 78 87 94 98 102 106 112 115 120 122 122 126 128 130 131 133 136 139 141 142 137 135 132 132 129 128 122 114 112 108 100 95 89 81 74 70 68 64 60 58 58 57
78 83 81 83 87 92 90 81 87 95 99 101 104 110 115 119 120 122 124 129 135 137 135 130 126 128 134 142 143 135 135 130 125 123 115 107 106 102 97 97 89 76 74 73 69 66 65 63 62
86 90 90 93 95 96 102 83 92 95 98 101 103 105 106 110 111 118 121 120 123 125 125 124 121 114 114 116 114 125 127 129 127 119 118 109 104 101 95 98 95 84 82 79 76 73 69 68 65
Wind_Direction
233 239 241 246 255 250 265 276 282 289 293 296 301 308 310 308 297 300 295 297 300 301 305 307 312 314 317 320 321 324 326 333 338 340 342 344 346 350 353 357 359 360 355 341 328 318 297 283 272
230 239 237 242 254 259 263 274 283 287 290 293 297 301 300 303 300 293 293 290 292 295 298 300 303 307 312 315 318 320 324 331 337 340 340 341 343 347 352 356 358 360 360 352 341 328 315 301 290
237 241 242 250 257 258 265 273 282 287 290 294 297 298 297 299 298 298 294 290 292 293 297 300 301 302 307 314 314 315 320 326 334 340 340 339 341 344 350 353 357 360 359 357 350 338 319 310 303
244 242 246 253 260 263 266 270 278 285 288 290 293 294 295 295 294 294 294 293 287 289 293 295 297 299 305 311 312 313 316 323 331 338 339 338 339 341 346 350 355 358 359 358 353 346 328 305 304
248 242 244 250 258 267 275 274 274 279 283 287 290 291 292 292 291 292 291 290 288 289 293 296 296 299 304 309 310 311 314 322 328 335 335 335 336 337 340 345 350 355 358 358 354 348 342 314 299
251 250 247 257 259 265 271 274 278 279 282 285 287 287 287 289 288 289 292 290 289 291 292 294 296 298 302 305 307 307 311 320 325 330 332 332 332 334 337 340 346 351 355 358 357 352 345 339 309
253 254 260 264 267 268 269 270 272 277 280 281 283 285 286 284 286 287 288 289 289 290 292 292 292 294 298 301 303 304 313 315 320 326 329 326 327 329 332 337 342 347 351 355 356 355 351 344 330
253 255 258 266 268 271 271 273 274 276 278 281 284 286 285 282 283 285 287 288 288 290 288 291 290 292 294 297 299 297 305 310 315 320 324 321 322 324 329 334 339 344 348 349 352 353 352 349 342
252 257 262 264 269 272 274 277 276 275 276 277 282 283 279 279 281 282 282 283 284 284 287 287 290 292 293 294 292 292 301 305 310 312 315 315 317 321 325 330 336 341 343 346 345 348 350 349 347
254 258 262 264 265 270 273 275 275 275 276 278 280 282 278 275 277 280 278 278 279 280 281 282 284 287 290 291 289 289 294 299 304 305 307 310 314 317 321 324 331 335 339 341 342 344 345 346 345
252 256 260 264 268 272 273 272 275 277 276 277 282 282 277 274 273 274 276 277 277 277 278 280 282 281 283 287 287 288 291 293 298 300 301 305 310 313 317 319 325 331 335 334 338 339 340 341 341
255 258 263 266 266 268 271 272 276 276 278 278 277 279 277 273 273 274 275 274 275 277 279 283 284 281 281 285 284 283 286 289 295 296 297 301 307 309 313 316 319 326 330 328 331 334 335 338 336
256 260 263 266 268 270 270 270 272 273 277 277 276 275 273 271 274 273 273 273 275 275 278 285 284 283 281 283 284 284 286 292 294 295 295 298 303 306 308 311 314 322 326 324 326 330 330 332 334
258 262 264 267 270 271 271 273 272 274 274 275 276 276 274 272 274 276 276 277 279 279 277 279 280 281 283 285 284 286 290 291 291 292 293 294 300 303 305 307 309 315 320 319 320 326 326 327 328
259 261 264 265 267 269 271 274 273 274 274 277 276 274 277 276 276 278 279 280 281 279 276 274 278 282 281 283 284 286 287 286 286 287 288 292 296 300 299 302 304 309 314 314 315 320 320 323 323
258 261 263 263 266 268 271 272 274 274 275 276 277 277 278 277 276 278 278 280 283 281 279 276 276 278 281 279 282 282 282 282 281 282 286 289 292 294 293 296 298 305 308 308 309 314 316 319 320
259 262 263 266 266 268 270 270 271 273 273 273 274 276 275 273 274 276 279 280 279 277 275 276 273 272 276 278 277 277 278 278 278 281 284 286 286 285 286 289 295 298 300 302 305 310 311 314 317
261 262 265 266 268 268 271 270 270 272 271 270 272 274 274 273 276 273 272 271 272 272 275 276 275 273 272 276 276 275 275 276 277 279 279 280 280 282 285 288 290 292 295 298 302 308 309 312 313
262 264 265 268 268 269 267 267 268 269 271 271 272 273 273 273 274 274 272 272 272 272 272 273 273 273 270 268 273 272 270 273 275 275 276 276 277 280 284 286 287 288 293 296 301 304 305 308 308
264 266 266 267 269 269 269 267 266 267 269 272 272 272 272 272 272 272 273 274 274 274 273 271 272 272 272 270 267 271 271 270 271 272 271 271 275 279 280 281 284 286 290 293 296 297 301 303 302
268 268 268 269 272 273 270 271 272 270 271 272 273 275 274 274 273 273 272 272 272 273 272 272 271 272 271 271 269 267 271 269 268 268 270 271 272 273 276 278 279 282 285 289 291 293 297 299 296
276 275 275 276 275 276 279 273 276 277 274 272 271 272 275 277 277 277 277 276 274 271 270 269 269 269 270 270 270 268 266 269 267 267 267 268 270 271 273 275 276 278 281 284 286 289 293 294 290
285 284 284 284 284 281 280 282 281 277 275 275 275 275 275 274 275 275 275 274 275 274 273 271 269 269 268 268 269 268 266 265 267 266 267 268 268 269 270 272 273 275 277 280 283 285 290 287 286
294 292 289 287 287 286 286 286 283 284 282 280 279 277 275 272 270 270 269 268 268 269 271 271 272 271 270 268 268 267 265 264 263 266 265 266 267 269 269 269 270 272 275 277 280 283 285 282 282
307 300 295 293 291 292 293 292 287 286 286 284 279 276 274 272 269 267 268 268 268 268 268 267 266 266 266 266 266 267 267 267 264 261 262 263 265 266 267 268 271 272 272 275 278 279 277 276 279
319 311 307 305 301 297 298 296 294 293 290 289 287 284 280 276 273 270 268 268 267 266 265 265 264 265 265 265 264 264 265 264 265 266 266 262 260 263 266 266 267 269 271 273 274 274 272 273 278
324 321 314 308 306 302 298 297 297 294 291 288 285 280 278 277 276 275 272 270 269 268 267 266 266 265 263 263 263 263 265 265 265 265 265 267 266 263 262 264 265 266 268 269 269 271 270 273 276
326 325 322 314 310 307 306 306 304 304 294 292 289 286 283 281 280 278 276 274 272 269 268 268 269 270 270 269 266 265 264 263 263 262 262 264 265 266 264 264 264 264 264 264 266 268 271 275 275
324 324 321 318 315 314 311 312 307 296 293 290 287 285 285 284 282 279 276 275 274 275 275 275 273 270 268 265 267 266 265 264 262 262 260 259 261 262 263 264 263 262 262 263 265 267 272 273 275
324 324 321 320 318 318 311 315 303 300 295 293 292 290 285 282 280 279 279 277 275 273 273 273 273 271 268 266 263 262 259 260 260 258 257 254 256 259 257 259 262 260 260 262 265 267 270 273 272